This demonstration page uses our WeatherBlox Daily Observations layout. Learn more.

Hourly Observations for February 10, 2019

Temp ( °F °C ) Dew Point ( °F °C ) Humidity (%) Winds ( mph kmh ) Pressure ( in mb ) Visibility ( mi km ) Precip ( " mm )
12:54 am 00:54 Cloudy 29 -1.7 19 -7.2 66 66 SSE 10 17 30.29 1026 10 16.0934 0 0
1:54 am 01:54 Cloudy 29 -1.7 20 -6.7 69 69 SSE 16 26 30.25 1024 10 16.0934 0 0
2:54 am 02:54 Cloudy 29 -1.7 20 -6.7 69 69 SSE 12 19 30.23 1024 10 16.0934 0 0
3:50 am 03:50 Cloudy with Light Snow 28 -2 21 -6 74 74 SE 12 19 30.23 1024 1.75 2.816345 0 0.0254
3:54 am 03:54 Cloudy with Light Snow 27 -2.8 22 -5.6 81 81 SE 12 19 30.19 1022 1.25 2.011675 0 0.0254
4:05 am 04:05 Mostly Cloudy with Scattered Snow Showers 27 -2.8 23 -5 85 85 SE 14 22 30.22 1023 0.75 1.207005 0.02 0.508
4:13 am 04:13 Cloudy with Light Snow 27 -2.8 24 -4.4 89 89 SE 12 19 30.21 1023 1.25 2.011675 0.02 0.508
4:26 am 04:26 Cloudy with Light Snow 27 -2.8 24 -4.4 89 89 SE 12 19 30.21 1023 1.75 2.816345 0.03 0.762
4:33 am 04:33 Cloudy with Light Snow 27 -2.8 24 -4.4 89 89 SE 10 17 30.21 1023 2 3.21868 0.03 0.762
4:42 am 04:42 Cloudy with Light Snow 27 -2.8 24 -4.4 89 89 ESE 10 17 30.2 1023 1.75 2.816345 0.03 0.762
4:54 am 04:54 Cloudy with Light Snow 26 -3.3 24 -4.4 92 92 SE 10 17 30.17 1022 2.5 4.02335 0.04 1.016
5:07 am 05:07 Cloudy with Light Snow 27 -2.8 24 -4.4 89 89 SE 9 15 30.2 1023 4 6.43736 0 0.0254
5:54 am 05:54 Cloudy with Light Snow 27 -2.8 24 -4.4 89 89 SSE 12 19 30.15 1021 5 8.0467 0.01 0.254
6:06 am 06:06 Cloudy with Light Snow 27 -2.8 23 -5 85 85 SE 10 17 30.2 1023 5 8.0467 0 0.0254
6:13 am 06:13 Cloudy with Light Snow 27 -2.8 24 -4.4 89 89 SE 8 13 30.2 1023 4 6.43736 0 0.0254
6:31 am 06:31 Cloudy with Light Snow 27 -2.8 24 -4.4 89 89 SE 10 17 30.2 1023 2 3.21868 0 0.0254
6:48 am 06:48 Cloudy with Light Snow 27 -3 25 -4 93 93 SE 6 9 30.21 1023 1.75 2.816345 0.01 0.254
6:54 am 06:54 Cloudy with Light Snow 27 -2.8 26 -3.3 96 96 SSE 7 11 30.18 1022 1.75 2.816345 0.02 0.508
7:25 am 07:25 Cloudy with Light Snow 27 -2.8 26 -3.3 96 96 ESE 8 13 30.21 1023 2 3.21868 0.02 0.508
7:54 am 07:54 Cloudy with Light Snow 27 -2.8 25 -3.9 92 92 E 9 15 30.17 1022 2 3.21868 0.03 0.762
8:07 am 08:07 Cloudy with Light Snow 27 -2.8 25 -3.9 92 92 ESE 10 17 30.2 1023 1.75 2.816345 0 0.0254
8:16 am 08:16 Cloudy with Light Snow 27 -2.8 25 -3.9 92 92 ESE 8 13 30.2 1023 2 3.21868 0 0.0254
8:27 am 08:27 Cloudy with Light Snow 27 -2.8 25 -3.9 92 92 SE 8 13 30.2 1023 5 8.0467 0 0.0254
8:54 am 08:54 Cloudy with Light Snow 27 -2.8 25 -3.9 92 92 ESE 8 13 30.17 1022 6 9.65604 0 0.0254
9:42 am 09:42 Cloudy with Mist and Fog 28 -2.2 26 -3.3 92 92 SE 3 6 30.21 1023 2 3.21868 0 0.0254
9:54 am 09:54 Cloudy with Mist and Fog 28 -2.2 26 -3.3 92 92 ESE 5 7 30.18 1022 2 3.21868 0 0.0254
10:12 am 10:12 Cloudy with Mist and Fog 28 -2.2 26 -3.3 92 92 Calm 30.21 1023 3 4.82802 0 0
10:54 am 10:54 Cloudy with Mist and Fog 28 -2.2 27 -2.8 96 96 Calm 30.17 1022 5 8.0467 0 0
11:54 am 11:54 Cloudy with Mist and Fog 30 -1.1 27 -2.8 88 88 Calm 30.17 1022 5 8.0467 0 0
12:54 pm 12:54 Cloudy with Mist and Fog 31 -0.6 28 -2.2 89 89 NNW 3 6 30.16 1021 4 6.43736 0 0
1:54 pm 13:54 Cloudy with Mist and Fog 31 -0.6 28 -2.2 89 89 N 5 7 30.15 1021 5 8.0467 0 0
2:54 pm 14:54 Cloudy with Mist and Fog 31 -0.6 29 -1.7 92 92 N 6 9 30.15 1021 6 9.65604 0 0
3:20 pm 15:20 Cloudy 32 0 29 -1.7 88 88 N 8 13 30.17 1022 7 11.26538 0 0
3:54 pm 15:54 Cloudy with Mist and Fog 32 0 29 -1.7 88 88 NE 8 13 30.15 1021 6 9.65604 0 0
4:40 pm 16:40 Cloudy 32 0 29 -1.7 88 88 NE 7 11 30.18 1022 8 12.87472 0 0
4:54 pm 16:54 Cloudy 32 0 28 -2.2 85 85 NE 9 15 30.15 1021 8 12.87472 0 0
5:08 pm 17:08 Cloudy 31 -0.6 28 -2.2 89 89 NE 9 15 30.17 1022 8 12.87472 0 0
5:36 pm 17:36 Cloudy 31 -0.6 28 -2.2 89 89 NE 7 11 30.17 1022 8 12.87472 0 0
5:54 pm 17:54 Cloudy 31 -0.6 27 -2.8 85 85 ENE 9 15 30.15 1021 8 12.87472 0 0
6:30 pm 18:30 Cloudy 31 -0.6 27 -2.8 85 85 NE 5 7 30.19 1022 9 14.48406 0 0
6:54 pm 18:54 Cloudy 30 -1.1 26 -3.3 85 85 NNE 9 15 30.17 1022 10 16.0934 0 0
7:32 pm 19:32 Cloudy 30 -1.1 26 -3.3 85 85 NE 9 15 30.19 1022 9 14.48406 0 0
7:54 pm 19:54 Cloudy 30 -1.1 26 -3.3 85 85 NE 7 11 30.17 1022 8 12.87472 0 0
8:54 pm 20:54 Cloudy 29 -1.7 26 -3.3 89 89 NE 8 13 30.18 1022 7 11.26538 0 0
9:54 pm 21:54 Cloudy 29 -1.7 25 -3.9 85 85 ENE 5 7 30.18 1022 9 14.48406 0 0
10:54 pm 22:54 Cloudy 28 -2.2 24 -4.4 85 85 ENE 8 13 30.17 1022 7 11.26538 0 0
11:54 pm 23:54 Cloudy 28 -2.2 24 -4.4 85 85 ENE 7 11 30.16 1022 7 11.26538 0 0

Powered by AerisWeather